Flag for Norway Weather past 2 weeks in Horten, Norway

54 °F

Partly sunny.

Feels Like: 47 °F
Forecast: 41 / 50 °F
Wind: 30 mph from South

Location: Oseberg

Current Time: Oct 10, 2015 at 12:57:01 PM

Latest Report: Oct 10, 2015 at 12:20 PM

Visibility: N/A

Pressure: 30.27 "Hg

Humidity: 82%

Dew point: 48 °F

Location of HortenLocation

Historic Weather in Horten — Graph


Horten temperature yesterday

Maximum temperature yesterday: 54 °F (at 12:50 AM)
Minimum temperature yesterday: 52 °F (at 1:50 AM)
Average temperature yesterday: 52 °F

Past Weeks' High & Low Weather Summary

High59 °F (Sep 27, 3:50 PM)100% (Sep 27, 6:50 AM)30.60 "Hg (Sep 27, 6:50 AM)
Low50 °F (Sep 26, 6:50 AM)55% (Oct 6, 7:50 PM)29.71 "Hg (Sep 25, 12:20 PM)
Average53 °F84%30.17 "Hg
* Reported Sep 25 12:20 PM — Oct 10 11:50 AM, Horten, Weather by CustomWeather, © 2015

Note: Actual official high and low records may vary slightly from our data, if they occured in-between our weather recording intervals... More about our weather records


Horten weather history for previous 24 hours

Time TempWeatherWind HumidityBarometerVisibility
11:50 AM
Sat, Oct 10
54 °FScattered clouds.30 mph82%30.27 "HgN/A
10:50 AM54 °FScattered clouds.30 mph82%30.27 "HgN/A
10:20 AM54 °FScattered clouds.30 mph82%30.27 "HgN/A
9:50 AM54 °FScattered clouds.29 mph82%30.27 "HgN/A
9:20 AM54 °FPassing clouds.26 mph82%30.27 "HgN/A
8:50 AM52 °FPassing clouds.29 mph88%30.27 "HgN/A
8:20 AM52 °FPassing clouds.29 mph88%30.27 "HgN/A
7:50 AM52 °FPassing clouds.28 mph88%30.27 "HgN/A
7:20 AM54 °FPassing clouds.30 mph82%30.27 "HgN/A
6:50 AM52 °FPassing clouds.32 mph88%30.24 "HgN/A
5:50 AM52 °FPartly cloudy.28 mph88%30.24 "HgN/A
4:50 AM52 °FPartly cloudy.29 mph94%30.24 "HgN/A
3:50 AM52 °FPassing clouds.28 mph88%30.24 "HgN/A
2:50 AM52 °FPartly cloudy.28 mph88%30.24 "HgN/A
1:50 AM52 °FPassing clouds.26 mph94%30.24 "HgN/A
12:50 AM52 °FPassing clouds.25 mph88%30.24 "HgN/A
11:50 PM
Fri, Oct 9
52 °FPassing clouds.28 mph88%30.24 "HgN/A
10:50 PM52 °FPassing clouds.28 mph88%30.24 "HgN/A
9:50 PM52 °FPartly cloudy.31 mph88%30.24 "HgN/A
8:50 PM52 °FPassing clouds.33 mph88%30.21 "HgN/A
7:50 PM52 °FPassing clouds.31 mph88%30.21 "HgN/A
6:50 PM52 °FScattered showers. Partly sunny.28 mph88%30.21 "HgN/A
5:50 PM52 °FScattered showers. Broken clouds.30 mph94%30.21 "HgN/A
5:20 PM52 °FScattered showers. Broken clouds.29 mph94%30.18 "HgN/A
4:20 PM52 °FBroken clouds.25 mph94%30.18 "HgN/A
3:50 PM52 °FScattered showers. Scattered clouds.28 mph88%30.18 "HgN/A
3:20 PM52 °FScattered showers. Scattered clouds.26 mph88%30.18 "HgN/A
2:50 PM52 °FScattered showers. Scattered clouds.28 mph94%30.18 "HgN/A
1:50 PM52 °FScattered showers. Broken clouds.28 mph94%30.18 "HgN/A
1:20 PM52 °FScattered showers. Partly sunny.26 mph94%30.18 "HgN/A
12:50 PM52 °FScattered showers. Partly sunny.22 mph88%30.18 "HgN/A
12:20 PM52 °FScattered showers. Partly sunny.17 mph88%30.18 "HgN/A
Weather by CustomWeather, © 2015

See weather overviewHow to use our weather pages